カタログに戻る

DELTA 1 DEB

運用中SSO
NORAD 21463·DEBRIS·🇺🇸 United States

打ち上げ Jun 12, 1975 から Vandenberg Space Force Base

Loading…

次のパス (今後24時間)

TLE

最新Source: Space-Track

元期: Sep 13, 2026, 11:35 UTC

1 21463U 75052EX  26256.48303449  .00000117  00000-0  21019-3 0  9996
2 21463  99.8170 131.7713 0155875   6.8195 113.0443 13.57221992747381

AllMySatでDELTA 1 DEBをリアルタイム追跡

Download on the App Store